Voltar ao catálogo

PIAST-S2

AtivoCiênciaSSO
NORAD 66757·PAYLOAD·🇵🇱 Poland

Lançado Nov 28, 2025 de Vandenberg Space Force Base

Loading…

Próximas Passagens (próximas 24 horas)

TLE

AtualizadoSource: Space-Track

Época: Sep 14, 2026, 03:11 UTC

1 66757U 25276CV  26257.13332827  .00004608  00000-0  20902-3 0  9998
2 66757  97.4140 329.5610 0002194  46.5410 313.6008 15.21308072 43951

Acompanhe PIAST-S2 em tempo real com AllMySat

Download on the App Store